[[{"header":{"parameterUnit":"m.s-1","parameterCategory":2,"la1":30.2991,"la2":30.254,"lo1":-89.0895,"lo2":-89.0444,"dy":0.0017,"dx":0.0017,"nx":28,"ny":28,"refTime":"2024-11-28T09:00:00:Z","depth":"0","parameterNumber":2,"parameterNumberName":"U-component_of_CURRENTS"},"data":[0,0,0,0,0,0,0,0,0,0,0,0,0,0,0,0,0,0,0,0,0,0,0,0,0,0,0,0,0,0,0,0,0,0,0,0,0,0,0,0,0,0,0,0,0,0,0,0,0,0,0,0,0,0,0,0,0,0,0.3218,0.3219,0,0.3324,0.3325,0.3325,0.328,0.3278,0.3276,0.3274,0.3379,0.3383,0.3388,0,0,0,0,0,0,0,0,0,0,0,0,0,0.3015,0.3018,0.3217,0.3219,0.3222,0.3324,0.3325,0.3326,0.328,0.3278,0.3276,0.3273,0.3377,0.3383,0.3388,0,0,0,0,0,0,0,0,0,0,0,0,0,0.3103,0.3019,0.3217,0.3217,0.3219,0.3324,0.3325,0.3326,0.3281,0.3278,0.3275,0.3272,0.3376,0.3382,0.3389,0.3486,0,0,0.341,0.3413,0,0,0,0,0,0,0,0,0.3098,0.3109,0.3215,0.3217,0.322,0.3293,0.3293,0.3382,0.3281,0.3249,0.3274,0.3271,0.3358,0.3366,0.338,0.3491,0.3495,0.341,0.3414,0.3417,0.3419,0,0,0,0,0,0,0,0.3092,0.3105,0.3251,0.3218,0.3221,0.3227,0.3235,0.3309,0.3311,0.3251,0.325,0.3276,0.3357,0.3374,0.3382,0.3497,0.341,0.3416,0.342,0.3423,0.3726,0.373,0,0,0,0,0,0,0.3097,0.3099,0.3248,0.3255,0.316,0.3233,0.3242,0.3266,0.331,0.3317,0.3278,0.3274,0.3364,0.3375,0.3386,0.3509,0.3417,0.3423,0.3427,0.3722,0.3727,0.3731,0,0,0,0,0,0,0.3092,0.3109,0.3244,0.3186,0.3204,0.324,0.3267,0.3269,0.3295,0.3332,0.3336,0.3302,0.3362,0.3377,0.3475,0.3512,0.3426,0.3433,0.3717,0.3723,0.3729,0.3751,0,0,0,0,0,0,0.3085,0.3106,0.3119,0.3187,0.3208,0.3335,0.3271,0.3274,0.3318,0.3313,0.3356,0.3361,0.3361,0.3465,0.3482,0.3519,0.3438,0.3712,0.372,0.3727,0.3745,0.3757,0.3767,0,0,0,0,0,0.3078,0.3115,0.3119,0.3137,0.3227,0.334,0.3352,0.3361,0.3322,0.3364,0.3385,0.336,0.3524,0.3475,0.3493,0.3533,0.3708,0.3718,0.3726,0.374,0.3755,0.3767,0,0,0,0,0,0,0.3031,0.3117,0.3122,0.318,0.3267,0.3335,0.3374,0.3381,0.3429,0.3416,0.3421,0.3433,0.3537,0.3553,0.3498,0.3649,0.361,0.3623,0.3615,0.3629,0.3639,0.3601,0.3444,0,0,0,0,0,0.3033,0.308,0.3173,0.3224,0.3271,0.3325,0.3366,0.3386,0.3443,0.3457,0.3493,0.3534,0.3593,0.362,0.369,0.3778,0.3731,0.3818,0.3829,0.3837,0.3825,0.3805,0.381,0.3761,0.376,0.376,0,0,0.3031,0.3084,0.311,0.3218,0.3275,0.3359,0.3341,0.3429,0.3483,0.3469,0.3553,0.3593,0.3634,0.3725,0.3771,0.3734,0.3828,0.3849,0.3855,0.3837,0.3815,0.3818,0.3822,0.3767,0.3766,0.3765,0,0,0.3053,0.3105,0.3148,0.3233,0.334,0.3395,0.3429,0.3527,0.3552,0.3663,0.3649,0.3709,0.3821,0.3833,0.3853,0.3979,0.3902,0.401,0.4011,0.3994,0.3995,0.3996,0.3917,0.3911,0.3994,0.3994,0.3994,0,0.3042,0.3109,0.3185,0.326,0.3322,0.3415,0.3484,0.3557,0.3668,0.368,0.3702,0.3814,0.3866,0.3909,0.3953,0.3997,0.3947,0.3943,0.3998,0.3999,0.3999,0.3918,0.3911,0.3996,0.3996,0.3996,0.3995,0,0.3092,0.3161,0.3211,0.3323,0.3405,0.3501,0.3613,0.3686,0.3736,0.3777,0.386,0.3929,0.3967,0.4012,0.4025,0.4056,0.4005,0.402,0.394,0.4003,0.3917,0.3908,0.3999,0.3998,0.3998,0.3997,0,0,0.3038,0.3205,0.322,0.3285,0.3444,0.3526,0.3625,0.3725,0.3756,0.3868,0.3892,0.4009,0.4008,0.4035,0.4053,0.4049,0.4025,0.4032,0.403,0.3909,0.3924,0.3669,0.3635,0.4032,0.4032,0.4031,0.3849,0,0.3053,0.3174,0.3249,0.3389,0.3478,0.358,0.3664,0.3757,0.3828,0.3894,0.394,0.4001,0.4028,0.4041,0.4047,0.4049,0.4009,0.4069,0.3921,0.3915,0.3644,0.362,0.3432,0.3235,0.3841,0.3839,0.3838,0,0.3073,0.3156,0.3259,0.3423,0.3465,0.3542,0.3653,0.3745,0.3835,0.3879,0.3911,0.3958,0.3984,0.4016,0.3974,0.4002,0.3962,0.3948,0.394,0.3683,0.3644,0.3282,0.3196,0.3119,0.3824,0.3825,0.3826,0,0.3011,0.3174,0.3243,0.3307,0.3492,0.3522,0.361,0.3707,0.3764,0.3845,0.3866,0.3907,0.3922,0.3904,0.3867,0.3924,0.3783,0.3858,0.3571,0.3551,0.335,0.3311,0.3129,0.3802,0.3803,0.3803,0.3804,0,0.3028,0.3109,0.3215,0.3278,0.3362,0.348,0.355,0.3637,0.3714,0.3757,0.3835,0.3843,0.3898,0.3835,0.3819,0.3609,0.3723,0.3531,0.348,0.3351,0.3316,0.3208,0.3205,0.3796,0.3798,0.3799,0.38,0,0.303,0.3081,0.3193,0.3321,0.335,0.3416,0.3534,0.3586,0.3643,0.3693,0.3712,0.3771,0.3663,0.3625,0.3567,0.3489,0.3225,0.3261,0.306,0.2986,0.2648,0.2654,0.2314,0.2275,0.2926,0.2918,0.2912,0,0.3068,0.3112,0.3209,0.3243,0.3308,0.3394,0.3451,0.3546,0.3587,0.363,0.3644,0.3556,0.3474,0.3222,0.3052,0.2847,0.2885,0.2565,0.2654,0.254,0.2516,0.2513,0.2513,0.2407,0.2397,0.2388,0.2382,0,0.3171,0.3168,0.325,0.3269,0.3313,0.3378,0.3448,0.3458,0.3541,0.3527,0.3456,0.3371,0.3092,0.2773,0.2475,0.2373,0.2402,0.2385,0.2354,0.2123,0.2025,0.1993,0.2598,0.2309,0.2317,0.2322,0.2326,0.2329,0.3242,0.328,0.3301,0.3318,0.334,0.3326,0.3302,0.3336,0.3314,0.3186,0.3245,0.2954,0.261,0.2149,0.2022,0.1639,0.1818,0.1592,0.1615,0.1629,0.1552,0.1928,0.1532,0.1535,0.1537,0.1539,0.1541,0,0.3303,0.3311,0.3349,0.3307,0.3244,0.3272,0.3265,0.3158,0.3022,0.2891,0.2744,0.2243,0.1862,0.1556,0.1103,0.0941,0.1009,0.0895,0.0939,0.0997,0.1384,0.1324,0.0759,0.0759,0.0759,0.0759,0.0759,0.0759,0.3332,0.3345,0.3316,0.3181,0.3126,0.2972,0.2907,0.275,0.2598,0.2168,0.1791,0.1611,0.1274,0.0822,0.0494,0.0465,0.0512,0.034,0.0491,0.085,0.0923,0.0993,0.0939,0.0301,0.03,0.009,0.0088,0.0086]},{"header":{"parameterUnit":"m.s-1","parameterCategory":2,"la1":30.2991,"la2":30.254,"lo1":-89.0895,"lo2":-89.0444,"dy":0.0017,"dx":0.0017,"nx":28,"ny":28,"refTime":"2024-11-28T09:00:00:Z","depth":"0","parameterNumber":3,"parameterNumberName":"V-component_of_CURRENTS"},"data":[0,0,0,0,0,0,0,0,0,0,0,0,0,0,0,0,0,0,0,0,0,0,0,0,0,0,0,0,0,0,0,0,0,0,0,0,0,0,0,0,0,0,0,0,0,0,0,0,0,0,0,0,0,0,0,0,0,0,0.0282,0.0282,0,0.025,0.0249,0.0249,0.0225,0.0225,0.0225,0.0225,0.0233,0.0233,0.0233,0,0,0,0,0,0,0,0,0,0,0,0,0,0.0248,0.0249,0.0282,0.0282,0.0282,0.025,0.0249,0.0249,0.0225,0.0225,0.0225,0.0225,0.0233,0.0233,0.0233,0,0,0,0,0,0,0,0,0,0,0,0,0,0.0243,0.025,0.0282,0.0267,0.0266,0.025,0.0249,0.0248,0.0225,0.0225,0.0225,0.0225,0.0233,0.0233,0.0233,0.0238,0,0,0.0235,0.0235,0,0,0,0,0,0,0,0,0.0243,0.0244,0.027,0.0268,0.0266,0.0242,0.024,0.0248,0.0225,0.0239,0.0225,0.0225,0.0241,0.0241,0.0232,0.0239,0.0239,0.0235,0.0235,0.0235,0.0235,0,0,0,0,0,0,0,0.0244,0.0245,0.0268,0.0269,0.0267,0.0236,0.0236,0.0241,0.0241,0.0238,0.0236,0.0235,0.024,0.0232,0.0232,0.0239,0.0235,0.0235,0.0235,0.0236,0.0277,0.0278,0,0,0,0,0,0,0.0255,0.0246,0.0269,0.0267,0.0256,0.0237,0.0237,0.0249,0.024,0.0238,0.0235,0.0234,0.0231,0.0232,0.0233,0.0265,0.0235,0.0236,0.0236,0.0276,0.0277,0.0278,0,0,0,0,0,0,0.0255,0.0258,0.027,0.0256,0.0255,0.0239,0.0252,0.0249,0.0242,0.0237,0.0236,0.0232,0.0231,0.0232,0.0231,0.0265,0.0236,0.0236,0.0275,0.0276,0.0277,0.0314,0,0,0,0,0,0,0.0254,0.0258,0.0268,0.0257,0.0257,0.0269,0.0252,0.0248,0.0241,0.024,0.0235,0.0235,0.0231,0.0231,0.0232,0.0265,0.0236,0.0274,0.0276,0.0277,0.0311,0.0316,0.032,0,0,0,0,0,0.0253,0.0274,0.0269,0.0271,0.0272,0.027,0.0267,0.0252,0.0242,0.0244,0.0231,0.0235,0.0243,0.0231,0.0232,0.0266,0.0273,0.0275,0.0277,0.0309,0.0315,0.032,0,0,0,0,0,0,0.0257,0.0274,0.0267,0.029,0.0282,0.0267,0.0271,0.0255,0.0245,0.0246,0.0234,0.0233,0.0248,0.0248,0.0236,0.0283,0.0264,0.0266,0.0289,0.0294,0.0298,0.0359,0.0237,0,0,0,0,0,0.0264,0.0289,0.0285,0.03,0.0304,0.0285,0.0281,0.0272,0.0262,0.0257,0.0247,0.0248,0.0257,0.0266,0.0267,0.0289,0.0322,0.0315,0.032,0.0323,0.0374,0.0463,0.0481,0.0284,0.0284,0.0284,0,0,0.0267,0.028,0.0291,0.0303,0.0299,0.0309,0.0283,0.0287,0.0295,0.0262,0.0269,0.0257,0.0262,0.0283,0.0293,0.0289,0.038,0.0326,0.0329,0.0379,0.0467,0.0487,0.0504,0.0285,0.0285,0.0285,0,0,0.0287,0.0301,0.0327,0.033,0.0334,0.0327,0.033,0.0316,0.0316,0.0313,0.0299,0.0316,0.0305,0.0334,0.0344,0.0379,0.0394,0.0366,0.0448,0.0532,0.055,0.0567,0.0568,0.0585,0.0377,0.0377,0.0377,0,0.0287,0.0323,0.0329,0.0352,0.036,0.0339,0.0359,0.0358,0.034,0.0363,0.0324,0.0361,0.0347,0.042,0.0422,0.0396,0.0416,0.0423,0.0541,0.0559,0.0575,0.0574,0.0592,0.0379,0.0379,0.0378,0.0378,0,0.0325,0.035,0.0367,0.0395,0.0403,0.0418,0.0421,0.0431,0.0419,0.0425,0.0476,0.0461,0.0502,0.0485,0.0459,0.057,0.0531,0.0528,0.0534,0.0598,0.059,0.0608,0.0382,0.0381,0.038,0.038,0,0,0.0337,0.0386,0.039,0.0417,0.0431,0.0447,0.0477,0.0515,0.0567,0.0554,0.0637,0.0634,0.0645,0.0661,0.0642,0.0705,0.0788,0.0668,0.0671,0.0679,0.0923,0.0854,0.0865,0.0808,0.0813,0.0817,0.0847,0,0.0362,0.0418,0.0434,0.0481,0.0512,0.0521,0.0559,0.0594,0.062,0.0693,0.0723,0.0778,0.0708,0.0735,0.0792,0.0811,0.085,0.0777,0.0855,0.0857,0.0797,0.0891,0.0886,0.0912,0.0865,0.0868,0.087,0,0.0392,0.0434,0.0486,0.0552,0.0569,0.0592,0.0679,0.071,0.0808,0.0836,0.0916,0.0936,0.1032,0.0958,0.1053,0.1009,0.0978,0.0972,0.0973,0.093,0.0826,0.0853,0.0947,0.097,0.0898,0.0896,0.0894,0,0.0407,0.047,0.0519,0.0537,0.0604,0.0643,0.0678,0.076,0.0822,0.0948,0.1021,0.1119,0.119,0.1212,0.1172,0.1134,0.126,0.1205,0.1103,0.1092,0.1121,0.1107,0.1271,0.1282,0.1281,0.1281,0.1281,0,0.0434,0.0476,0.0535,0.0565,0.0648,0.0678,0.0779,0.083,0.0943,0.1058,0.1106,0.1224,0.1267,0.1324,0.126,0.1246,0.133,0.116,0.1135,0.112,0.1106,0.1151,0.1148,0.1282,0.1282,0.1282,0.1282,0,0.0449,0.0478,0.0546,0.0625,0.0655,0.0716,0.0823,0.0912,0.0996,0.1158,0.1209,0.1347,0.1425,0.1407,0.1451,0.1363,0.1351,0.1291,0.1224,0.1192,0.1111,0.1107,0.1249,0.1294,0.1219,0.1218,0.1218,0,0.0471,0.0503,0.0587,0.0638,0.0676,0.0767,0.0844,0.0932,0.1032,0.123,0.1328,0.1453,0.1548,0.1559,0.1458,0.1358,0.1344,0.1251,0.1193,0.1156,0.1135,0.1129,0.1158,0.1208,0.1207,0.1206,0.1206,0,0.0522,0.0537,0.0592,0.0684,0.0765,0.0868,0.0978,0.106,0.1195,0.1323,0.1505,0.1595,0.1617,0.1574,0.1427,0.1339,0.1295,0.123,0.1268,0.1227,0.1168,0.1179,0.1068,0.12,0.12,0.1201,0.1201,0.1201,0.0562,0.06,0.0659,0.0745,0.0843,0.0966,0.1043,0.1177,0.1328,0.1515,0.1597,0.1698,0.1645,0.1473,0.1393,0.1233,0.1248,0.1168,0.1183,0.1192,0.1221,0.105,0.1104,0.1104,0.1104,0.1104,0.1104,0,0.0619,0.065,0.0726,0.0832,0.0935,0.0979,0.1139,0.1218,0.1386,0.1542,0.1668,0.1641,0.1575,0.146,0.1265,0.1206,0.1212,0.1184,0.1224,0.127,0.1195,0.1179,0.1163,0.1163,0.1163,0.1163,0.1163,0.1163,0.0655,0.0715,0.0739,0.0893,0.0971,0.1096,0.1178,0.1303,0.1409,0.1532,0.1545,0.1571,0.1502,0.1356,0.1272,0.1246,0.1309,0.1247,0.1308,0.1273,0.1274,0.1275,0.1264,0.1267,0.1267,0.1403,0.1404,0.1404]}],[{"header":{"parameterUnit":"m.s-1","parameterCategory":2,"la1":30.2991,"la2":30.254,"lo1":-89.0895,"lo2":-89.0444,"dy":0.0017,"dx":0.0017,"nx":28,"ny":28,"refTime":"2024-11-28T09:00:00:Z","depth":"2","parameterNumber":2,"parameterNumberName":"U-component_of_CURRENTS"},"data":[0,0,0,0,0,0,0,0,0,0,0,0,0,0,0,0,0,0,0,0,0,0,0,0,0,0,0,0,0,0,0,0,0,0,0,0,0,0,0,0,0,0,0,0,0,0,0,0,0,0,0,0,0,0,0,0,0,0,0.19,0.1899,0,0.1901,0.1902,0.1903,0.1989,0.199,0.1991,0.1992,0.2034,0.2034,0.2034,0,0,0,0,0,0,0,0,0,0,0,0,0,0.1954,0.1954,0.1901,0.1899,0.1898,0.1901,0.1902,0.1903,0.1989,0.199,0.1992,0.1993,0.2034,0.2034,0.2034,0,0,0,0,0,0,0,0,0,0,0,0,0,0.1952,0.1954,0.1901,0.1932,0.1934,0.19,0.1902,0.1903,0.1989,0.199,0.1992,0.1994,0.2034,0.2034,0.2034,0.2,0,0,0.2034,0.2034,0,0,0,0,0,0,0,0,0.1952,0.1952,0.1929,0.193,0.1932,0.1936,0.1935,0.1933,0.1988,0.1981,0.1992,0.1994,0.1995,0.1999,0.2012,0.2002,0.2003,0.2034,0.2034,0.2034,0.2034,0,0,0,0,0,0,0,0.1952,0.1952,0.1913,0.1927,0.1929,0.1939,0.1942,0.1936,0.1989,0.1982,0.1985,0.1965,0.1999,0.2012,0.2013,0.2004,0.2034,0.2034,0.2034,0.2034,0.2155,0.2158,0,0,0,0,0,0,0.1927,0.1952,0.1913,0.1912,0.1933,0.1936,0.194,0.1943,0.1988,0.1993,0.1963,0.1969,0.2011,0.2013,0.2015,0.2101,0.2034,0.2034,0.2034,0.2151,0.2155,0.2159,0,0,0,0,0,0,0.1928,0.1924,0.1913,0.1921,0.1919,0.1932,0.1935,0.1942,0.1991,0.1971,0.198,0.2008,0.2012,0.2015,0.204,0.2098,0.2034,0.2034,0.2148,0.2153,0.2157,0.2192,0,0,0,0,0,0,0.193,0.1926,0.193,0.192,0.1917,0.1893,0.1932,0.194,0.1967,0.1976,0.2011,0.2015,0.2014,0.204,0.204,0.2097,0.2034,0.2144,0.215,0.2156,0.2187,0.2197,0.2206,0,0,0,0,0,0.1933,0.1915,0.1931,0.1926,0.192,0.189,0.1892,0.1914,0.1968,0.1973,0.2016,0.2016,0.2081,0.2041,0.2041,0.2099,0.2141,0.2148,0.2155,0.2182,0.2195,0.2206,0,0,0,0,0,0,0.1941,0.192,0.1938,0.1918,0.1907,0.1901,0.19,0.1932,0.1974,0.1994,0.2021,0.2025,0.2076,0.2084,0.2041,0.2161,0.2125,0.2132,0.2146,0.2158,0.2168,0.2193,0.2034,0,0,0,0,0,0.1941,0.1926,0.1912,0.1895,0.1896,0.1915,0.1914,0.1925,0.1944,0.1969,0.1989,0.2041,0.21,0.2124,0.2143,0.2184,0.2177,0.2238,0.2248,0.2256,0.2282,0.2327,0.2342,0.2182,0.2182,0.2182,0,0,0.1941,0.192,0.1917,0.1895,0.1902,0.1906,0.1924,0.1914,0.1944,0.196,0.2015,0.2052,0.2116,0.2171,0.2199,0.2188,0.2288,0.2265,0.2271,0.2293,0.2336,0.2351,0.2365,0.2187,0.2186,0.2185,0,0,0.1928,0.192,0.192,0.1903,0.1885,0.1893,0.1901,0.1905,0.1943,0.1983,0.203,0.2103,0.216,0.2222,0.2273,0.2351,0.2327,0.2374,0.2449,0.2492,0.2505,0.2516,0.2469,0.2476,0.2392,0.2392,0.2392,0,0.1935,0.1927,0.1912,0.1902,0.1898,0.1902,0.1917,0.1941,0.1953,0.1993,0.2007,0.2169,0.2202,0.2333,0.2381,0.2373,0.2363,0.2389,0.2501,0.2513,0.2524,0.2474,0.2481,0.2394,0.2394,0.2394,0.2393,0,0.1933,0.1922,0.1912,0.192,0.1922,0.1904,0.1929,0.1952,0.2011,0.2044,0.2163,0.2227,0.2334,0.2376,0.2413,0.2535,0.2484,0.249,0.2458,0.2541,0.2483,0.249,0.2398,0.2397,0.2396,0.2396,0,0,0.1927,0.1924,0.1908,0.1929,0.1922,0.1921,0.1975,0.2027,0.2088,0.2144,0.2244,0.2393,0.2432,0.2496,0.2549,0.262,0.2671,0.2606,0.2607,0.2535,0.2704,0.2457,0.2439,0.2695,0.2698,0.27,0.2609,0,0.1932,0.1929,0.1928,0.1942,0.1957,0.1974,0.2024,0.207,0.2137,0.2206,0.2326,0.2422,0.2477,0.2544,0.2627,0.267,0.2702,0.2692,0.2658,0.2656,0.2408,0.2445,0.2283,0.2172,0.2615,0.2616,0.2617,0,0.1912,0.1919,0.1953,0.1975,0.1987,0.2014,0.21,0.2141,0.2235,0.2288,0.2411,0.2467,0.2608,0.2626,0.2748,0.2738,0.2733,0.2752,0.2748,0.252,0.2424,0.2178,0.2167,0.2628,0.2627,0.2626,0.2626,0,0.19,0.1911,0.1953,0.1953,0.2004,0.2054,0.2093,0.2182,0.2223,0.2342,0.2371,0.2532,0.2594,0.2679,0.2708,0.2743,0.2772,0.2808,0.2566,0.2544,0.2402,0.2362,0.2864,0.2864,0.2864,0.2865,0.2865,0,0.1861,0.1881,0.196,0.1967,0.2039,0.2074,0.2156,0.221,0.2282,0.2333,0.2417,0.2475,0.2618,0.2638,0.269,0.261,0.2743,0.2574,0.2521,0.2399,0.2362,0.2776,0.2767,0.2861,0.2862,0.2862,0.2863,0,0.1828,0.1864,0.1922,0.2003,0.2035,0.2096,0.2162,0.2202,0.2265,0.233,0.236,0.243,0.2445,0.2481,0.2564,0.2523,0.2512,0.2433,0.222,0.2143,0.226,0.2255,0.2193,0.2184,0.2176,0.217,0.2165,0,0.1824,0.1846,0.1952,0.198,0.2025,0.2105,0.2141,0.2211,0.2253,0.2308,0.2332,0.232,0.2299,0.2225,0.2172,0.2098,0.2258,0.1869,0.1923,0.2245,0.2201,0.2208,0.2213,0.1738,0.1729,0.1723,0.1717,0,0.1828,0.1873,0.1909,0.1973,0.2028,0.2088,0.2154,0.2147,0.2227,0.2214,0.2198,0.2163,0.2055,0.1887,0.1716,0.1684,0.1877,0.1716,0.2149,0.1903,0.18,0.1761,0.1785,0.1655,0.1661,0.1666,0.1669,0.1672,0.1844,0.1867,0.1914,0.1942,0.2023,0.2063,0.2021,0.2062,0.2048,0.1971,0.202,0.1856,0.1813,0.145,0.1342,0.1229,0.1401,0.137,0.14,0.1435,0.1369,0.1256,0.0992,0.0994,0.0996,0.0998,0.1,0,0.1848,0.1854,0.1868,0.1906,0.1932,0.2009,0.2018,0.1911,0.182,0.1772,0.1678,0.1382,0.1186,0.1135,0.0872,0.0789,0.088,0.0739,0.0908,0.0965,0.1018,0.0941,0.0445,0.0444,0.0443,0.0441,0,0,0.1848,0.1824,0.1785,0.1795,0.1833,0.1819,0.1777,0.1628,0.1548,0.1327,0.1194,0.1163,0.1133,0.0823,0.0719,0.056,0.0779,0.0505,0.0949,0.1212,0.1264,0.1365,0.1305,0,0,0,0,0]},{"header":{"parameterUnit":"m.s-1","parameterCategory":2,"la1":30.2991,"la2":30.254,"lo1":-89.0895,"lo2":-89.0444,"dy":0.0017,"dx":0.0017,"nx":28,"ny":28,"refTime":"2024-11-28T09:00:00:Z","depth":"2","parameterNumber":3,"parameterNumberName":"V-component_of_CURRENTS"},"data":[0,0,0,0,0,0,0,0,0,0,0,0,0,0,0,0,0,0,0,0,0,0,0,0,0,0,0,0,0,0,0,0,0,0,0,0,0,0,0,0,0,0,0,0,0,0,0,0,0,0,0,0,0,0,0,0,0,0,0.022,0.022,0,0.0214,0.0213,0.0213,0.0184,0.0184,0.0184,0.0184,0.0162,0.0162,0.0161,0,0,0,0,0,0,0,0,0,0,0,0,0,0.0154,0.0156,0.022,0.022,0.0221,0.0214,0.0213,0.0213,0.0184,0.0184,0.0184,0.0184,0.0162,0.0162,0.0161,0,0,0,0,0,0,0,0,0,0,0,0,0,0.0164,0.0156,0.022,0.021,0.0209,0.0214,0.0213,0.0212,0.0184,0.0184,0.0184,0.0184,0.0163,0.0162,0.0161,0.0162,0,0,0.0159,0.0159,0,0,0,0,0,0,0,0,0.0163,0.0166,0.0211,0.0211,0.021,0.0204,0.0183,0.0197,0.0184,0.0188,0.0184,0.0183,0.0179,0.0177,0.0168,0.0161,0.016,0.0159,0.0159,0.0159,0.0158,0,0,0,0,0,0,0,0.0163,0.0165,0.0212,0.0212,0.0211,0.0188,0.0189,0.0184,0.018,0.0187,0.0187,0.0195,0.0178,0.0169,0.0168,0.016,0.0159,0.0159,0.0158,0.0158,0.0186,0.0187,0,0,0,0,0,0,0.0178,0.0165,0.0212,0.0212,0.0192,0.019,0.0191,0.0202,0.018,0.0179,0.0195,0.0194,0.017,0.0168,0.0167,0.0198,0.0159,0.0158,0.0158,0.0185,0.0186,0.0187,0,0,0,0,0,0,0.0177,0.0183,0.0212,0.0193,0.0196,0.0193,0.0204,0.0202,0.019,0.0188,0.0184,0.0186,0.017,0.0168,0.0157,0.0196,0.0158,0.0157,0.0183,0.0185,0.0187,0.0241,0,0,0,0,0,0,0.0175,0.0182,0.0187,0.0194,0.0198,0.0229,0.0205,0.0202,0.0199,0.0196,0.0179,0.0177,0.017,0.0158,0.0157,0.0194,0.0157,0.0182,0.0184,0.0186,0.0238,0.0244,0.025,0,0,0,0,0,0.0173,0.0191,0.0188,0.0193,0.0208,0.0231,0.023,0.0222,0.0199,0.0206,0.018,0.0177,0.0172,0.0158,0.0156,0.0195,0.0181,0.0183,0.0186,0.0235,0.0243,0.025,0,0,0,0,0,0,0.0164,0.019,0.0187,0.0211,0.0225,0.0229,0.0234,0.0221,0.0204,0.0197,0.0175,0.0172,0.0185,0.0175,0.016,0.021,0.0183,0.0185,0.0221,0.0228,0.0234,0.0265,0.0156,0,0,0,0,0,0.0166,0.0187,0.0206,0.0225,0.0233,0.0227,0.0231,0.023,0.0223,0.0214,0.0201,0.0192,0.0195,0.0197,0.0198,0.0212,0.0216,0.0241,0.0247,0.0252,0.0277,0.0323,0.0336,0.0195,0.0195,0.0195,0,0,0.0166,0.0187,0.0195,0.0225,0.0229,0.025,0.0227,0.0245,0.0263,0.0216,0.0224,0.0209,0.0202,0.0224,0.0231,0.0219,0.0286,0.0255,0.026,0.0282,0.0327,0.034,0.0353,0.0197,0.0197,0.0197,0,0,0.0182,0.0197,0.0215,0.0236,0.0261,0.0266,0.0272,0.0278,0.0283,0.0288,0.0266,0.0271,0.0263,0.0279,0.0281,0.0321,0.0315,0.0322,0.0381,0.0424,0.0437,0.0448,0.0436,0.0446,0.0328,0.0328,0.0328,0,0.0175,0.0211,0.0224,0.0253,0.0277,0.0275,0.0303,0.0312,0.0314,0.0342,0.0303,0.0323,0.0301,0.0353,0.0357,0.034,0.0341,0.0351,0.0434,0.0445,0.0456,0.0442,0.0452,0.0331,0.033,0.033,0.033,0,0.0208,0.0237,0.0255,0.0292,0.0317,0.0348,0.0373,0.0399,0.0395,0.0414,0.0458,0.0425,0.0449,0.0438,0.04,0.0473,0.044,0.0434,0.0417,0.0473,0.0454,0.0464,0.0335,0.0334,0.0333,0.0332,0,0,0.02,0.0262,0.0269,0.0303,0.0346,0.0378,0.0427,0.0489,0.0541,0.0541,0.0611,0.0594,0.0589,0.0591,0.0558,0.0578,0.0616,0.0533,0.0534,0.0525,0.0678,0.062,0.0624,0.0627,0.063,0.0632,0.0622,0,0.0221,0.0282,0.0311,0.0377,0.0413,0.0453,0.0506,0.0567,0.0604,0.0672,0.0681,0.072,0.0646,0.0652,0.0668,0.0644,0.0651,0.0618,0.0624,0.0624,0.057,0.0638,0.0619,0.0608,0.0631,0.0633,0.0634,0,0.0245,0.0292,0.035,0.0446,0.0466,0.0504,0.0616,0.0664,0.0768,0.0799,0.0854,0.0862,0.0899,0.0819,0.0827,0.0809,0.075,0.0715,0.0714,0.0658,0.0586,0.0563,0.0624,0.065,0.0648,0.0647,0.0646,0,0.0246,0.0327,0.0379,0.0409,0.0503,0.0552,0.0603,0.0705,0.0785,0.0885,0.0949,0.0997,0.1016,0.0993,0.0902,0.088,0.0893,0.086,0.0749,0.0742,0.0729,0.0716,0.0871,0.0871,0.0871,0.0871,0.0871,0,0.0269,0.0317,0.0385,0.0421,0.0512,0.0566,0.0675,0.0742,0.0865,0.0979,0.1006,0.1084,0.1063,0.1064,0.0972,0.0891,0.0952,0.0782,0.0759,0.074,0.0729,0.0773,0.0762,0.087,0.087,0.087,0.087,0,0.0267,0.0303,0.0379,0.0477,0.0512,0.0575,0.0717,0.0815,0.0901,0.105,0.1091,0.1178,0.1167,0.111,0.1061,0.0973,0.0902,0.0842,0.0788,0.076,0.0697,0.0689,0.0757,0.0755,0.0754,0.0753,0.0752,0,0.0273,0.0307,0.0411,0.0465,0.0509,0.0609,0.0701,0.082,0.0933,0.1099,0.1184,0.1225,0.1252,0.115,0.1019,0.0881,0.0857,0.0758,0.0722,0.0727,0.0697,0.0691,0.0685,0.0704,0.0703,0.0702,0.0701,0,0.0303,0.0329,0.0395,0.0495,0.0585,0.0702,0.0832,0.0933,0.1086,0.1191,0.1314,0.1344,0.1252,0.1129,0.094,0.0836,0.079,0.073,0.0804,0.0728,0.0676,0.0646,0.0643,0.0692,0.0693,0.0694,0.0694,0.0694,0.033,0.0375,0.0453,0.0555,0.0661,0.0801,0.0887,0.103,0.1186,0.1331,0.1352,0.1338,0.1242,0.0969,0.0841,0.0692,0.0707,0.0637,0.0641,0.0647,0.0636,0.0584,0.0577,0.0577,0.0577,0.0577,0.0578,0,0.038,0.0435,0.0521,0.0647,0.0762,0.0808,0.0993,0.1066,0.1217,0.1299,0.1343,0.1171,0.1054,0.0919,0.0699,0.0589,0.0588,0.0533,0.0568,0.0577,0.0585,0.0572,0.0495,0.0495,0.0495,0.0494,0,0,0.0416,0.0503,0.0549,0.0728,0.0805,0.0935,0.1028,0.1119,0.1184,0.122,0.1188,0.1169,0.1044,0.0862,0.0731,0.0613,0.0612,0.0574,0.0649,0.0713,0.0723,0.0649,0.0639,0,0,0,0,0]}],[{"header":{"parameterUnit":"m.s-1","parameterCategory":2,"la1":30.2991,"la2":30.254,"lo1":-89.0895,"lo2":-89.0444,"dy":0.0017,"dx":0.0017,"nx":28,"ny":28,"refTime":"2024-11-28T09:00:00:Z","depth":"4","parameterNumber":2,"parameterNumberName":"U-component_of_CURRENTS"},"data":[0,0,0,0,0,0,0,0,0,0,0,0,0,0,0,0,0,0,0,0,0,0,0,0,0,0,0,0,0,0,0,0,0,0,0,0,0,0,0,0,0,0,0,0,0,0,0,0,0,0,0,0,0,0,0,0,0,0,0.0541,0.0541,0,0.0529,0.0529,0.0529,0.0604,0.0606,0.0608,0.061,0.054,0.0537,0.0533,0,0,0,0,0,0,0,0,0,0,0,0,0,0.0658,0.0656,0.0541,0.0541,0.0541,0.0529,0.0529,0.0529,0.0604,0.0606,0.0609,0.0611,0.0541,0.0537,0.0533,0,0,0,0,0,0,0,0,0,0,0,0,0,0.0624,0.0655,0.0541,0.0575,0.0578,0.0529,0.0529,0.0529,0.0603,0.0606,0.0609,0.0612,0.0543,0.0537,0.0532,0.0439,0,0,0.0515,0.0513,0,0,0,0,0,0,0,0,0.0626,0.062,0.057,0.0573,0.0576,0.057,0.0545,0.0496,0.0603,0.0596,0.061,0.0613,0.0541,0.0536,0.0531,0.0436,0.0433,0.0515,0.0511,0.0509,0.0507,0,0,0,0,0,0,0,0.0628,0.0621,0.0538,0.057,0.0573,0.0601,0.0599,0.0536,0.0552,0.0596,0.0601,0.0596,0.0543,0.0536,0.0529,0.0432,0.0515,0.051,0.0506,0.0504,0.0406,0.0407,0,0,0,0,0,0,0.0621,0.0623,0.0539,0.0538,0.0607,0.0596,0.0594,0.057,0.0554,0.0555,0.0594,0.06,0.0544,0.0536,0.0527,0.0525,0.0509,0.0504,0.0501,0.0406,0.0407,0.0407,0,0,0,0,0,0,0.0623,0.0612,0.0539,0.0581,0.0573,0.0591,0.0563,0.0568,0.0581,0.0553,0.0553,0.0604,0.0546,0.0535,0.0503,0.0518,0.0501,0.0496,0.0405,0.0406,0.0407,0.0449,0,0,0,0,0,0,0.0626,0.0613,0.0608,0.0579,0.057,0.0514,0.056,0.0566,0.0571,0.058,0.056,0.0556,0.0547,0.0511,0.0497,0.0511,0.0492,0.0404,0.0405,0.0407,0.0447,0.0451,0.0455,0,0,0,0,0,0.063,0.0607,0.0607,0.0598,0.0557,0.0513,0.0511,0.0536,0.0569,0.0562,0.0569,0.0558,0.0512,0.0506,0.049,0.0502,0.0403,0.0405,0.0406,0.0445,0.045,0.0455,0,0,0,0,0,0,0.0659,0.0611,0.0612,0.0577,0.0549,0.0526,0.0522,0.0533,0.0532,0.0556,0.0539,0.0534,0.053,0.0495,0.049,0.0483,0.0464,0.0463,0.0499,0.0504,0.0508,0.0549,0.0487,0,0,0,0,0,0.0657,0.0635,0.0586,0.0565,0.0541,0.053,0.0523,0.0538,0.0526,0.0532,0.0506,0.0503,0.0515,0.0495,0.0485,0.0438,0.0471,0.0446,0.045,0.0454,0.0479,0.0602,0.0621,0.0413,0.0413,0.0413,0,0,0.0671,0.0638,0.0631,0.0572,0.0551,0.0506,0.0534,0.0521,0.0517,0.0515,0.0493,0.0509,0.0511,0.0504,0.0496,0.0476,0.0513,0.0456,0.0459,0.0483,0.0606,0.0627,0.0645,0.0414,0.0413,0.0413,0,0,0.0663,0.064,0.0608,0.0572,0.0535,0.0514,0.0507,0.047,0.0492,0.0467,0.0504,0.0534,0.0477,0.0515,0.0525,0.0533,0.0546,0.0521,0.0553,0.0672,0.0691,0.0709,0.0705,0.0722,0.0507,0.0507,0.0507,0,0.0688,0.0623,0.0596,0.0543,0.0519,0.0509,0.0468,0.0469,0.044,0.0473,0.0468,0.0504,0.0501,0.0552,0.0581,0.0547,0.0583,0.0532,0.0682,0.07,0.0718,0.0711,0.0729,0.0509,0.0509,0.0509,0.0509,0,0.0634,0.0592,0.0564,0.0491,0.0464,0.0428,0.0408,0.0416,0.0437,0.0453,0.0511,0.0522,0.0561,0.0564,0.0578,0.0691,0.0661,0.069,0.0676,0.0743,0.0727,0.0746,0.0513,0.0512,0.0511,0.0511,0,0,0.067,0.055,0.055,0.0509,0.0438,0.0412,0.0416,0.0423,0.0478,0.047,0.0541,0.0582,0.0623,0.0642,0.066,0.0754,0.0888,0.0779,0.0785,0.0785,0.1082,0.0911,0.0914,0.0967,0.0972,0.0976,0.0995,0,0.064,0.0542,0.0498,0.0429,0.0364,0.0373,0.0378,0.0411,0.0459,0.0519,0.0591,0.0655,0.0637,0.0693,0.078,0.0888,0.0953,0.0875,0.1009,0.1011,0.0864,0.0937,0.0993,0.1009,0.1014,0.1017,0.1019,0,0.0595,0.0534,0.0456,0.0399,0.0381,0.036,0.0417,0.0419,0.0523,0.059,0.0672,0.0723,0.0833,0.084,0.1008,0.0967,0.1035,0.1097,0.11,0.0953,0.0879,0.0947,0.1053,0.105,0.1048,0.1046,0.1043,0,0.0614,0.0513,0.0459,0.0428,0.0361,0.0388,0.038,0.0459,0.0516,0.0652,0.074,0.0835,0.0913,0.1038,0.1116,0.1109,0.1301,0.1299,0.1178,0.1161,0.129,0.1272,0.1453,0.1453,0.1453,0.1453,0.1453,0,0.057,0.0527,0.0472,0.0437,0.0432,0.0392,0.0447,0.0496,0.0597,0.0674,0.0771,0.0857,0.0997,0.1091,0.116,0.1191,0.1324,0.12,0.1189,0.1289,0.1272,0.1298,0.1279,0.1454,0.1454,0.1454,0.1453,0,0.0552,0.0511,0.0454,0.0421,0.0424,0.0423,0.0463,0.0511,0.0621,0.0736,0.0794,0.0922,0.1025,0.1096,0.1275,0.1221,0.1296,0.1277,0.1304,0.1291,0.1051,0.1034,0.1144,0.1139,0.1134,0.1131,0.1128,0,0.0496,0.0464,0.0466,0.0458,0.0437,0.0444,0.0461,0.0532,0.0579,0.0757,0.08,0.0941,0.101,0.1083,0.1162,0.1208,0.121,0.119,0.1191,0.1058,0.1037,0.1027,0.1016,0.1121,0.112,0.1119,0.1118,0,0.0385,0.0429,0.0417,0.0444,0.045,0.0445,0.0463,0.0514,0.0601,0.072,0.0826,0.089,0.0962,0.1016,0.1039,0.1087,0.1181,0.1145,0.1155,0.1156,0.1031,0.1012,0.1007,0.1103,0.1105,0.1106,0.1107,0,0.0339,0.0334,0.0374,0.0402,0.0421,0.0421,0.0443,0.0479,0.0543,0.0721,0.0743,0.088,0.0966,0.0952,0.0992,0.0992,0.0983,0.095,0.097,0.0987,0.0923,0.074,0.0735,0,0,0,0,0,0.0254,0.0264,0.0301,0.0337,0.0381,0.0398,0.0426,0.0452,0.0555,0.0609,0.068,0.0752,0.0807,0.0851,0.0821,0.0885,0.0965,0.0838,0.0931,0.102,0.1037,0.0973,0,0,0,0,0,0,0.0207,0.0214,0.0281,0.0297,0.0328,0.035,0.0376,0.0441,0.0459,0.0577,0.0611,0.0686,0.0745,0.0844,0.0815,0.082,0.0851,0.0897,0.0893,0.101,0.1025,0.1039,0.098,0,0,0,0,0]},{"header":{"parameterUnit":"m.s-1","parameterCategory":2,"la1":30.2991,"la2":30.254,"lo1":-89.0895,"lo2":-89.0444,"dy":0.0017,"dx":0.0017,"nx":28,"ny":28,"refTime":"2024-11-28T09:00:00:Z","depth":"4","parameterNumber":3,"parameterNumberName":"V-component_of_CURRENTS"},"data":[0,0,0,0,0,0,0,0,0,0,0,0,0,0,0,0,0,0,0,0,0,0,0,0,0,0,0,0,0,0,0,0,0,0,0,0,0,0,0,0,0,0,0,0,0,0,0,0,0,0,0,0,0,0,0,0,0,0,0.0305,0.0306,0,0.0351,0.0351,0.0352,0.0336,0.0335,0.0335,0.0334,0.037,0.0372,0.0373,0,0,0,0,0,0,0,0,0,0,0,0,0,0.0213,0.0215,0.0305,0.0306,0.0307,0.0351,0.0351,0.0352,0.0336,0.0335,0.0334,0.0334,0.0369,0.0371,0.0373,0,0,0,0,0,0,0,0,0,0,0,0,0,0.0253,0.0215,0.0305,0.0306,0.0307,0.0351,0.0351,0.0352,0.0337,0.0335,0.0334,0.0333,0.0369,0.0371,0.0374,0.0413,0,0,0.0381,0.0383,0,0,0,0,0,0,0,0,0.0251,0.0256,0.0305,0.0306,0.0307,0.0339,0.0332,0.0373,0.0337,0.0323,0.0334,0.0333,0.0361,0.0364,0.0372,0.0414,0.0416,0.0382,0.0383,0.0384,0.0385,0,0,0,0,0,0,0,0.0248,0.0254,0.0321,0.0306,0.0307,0.0308,0.0312,0.034,0.0346,0.0324,0.0323,0.0333,0.0361,0.037,0.0373,0.0416,0.0382,0.0384,0.0385,0.0386,0.0463,0.0464,0,0,0,0,0,0,0.0249,0.0252,0.0319,0.0322,0.0278,0.0311,0.0315,0.0328,0.0346,0.0348,0.0334,0.0332,0.0366,0.037,0.0374,0.0407,0.0384,0.0387,0.0388,0.0463,0.0464,0.0464,0,0,0,0,0,0,0.0247,0.0254,0.0318,0.029,0.0298,0.0314,0.0328,0.0329,0.0343,0.0354,0.0355,0.0346,0.0365,0.0371,0.0393,0.0408,0.0388,0.039,0.0462,0.0463,0.0464,0.0481,0,0,0,0,0,0,0.0244,0.0253,0.0263,0.029,0.03,0.0341,0.033,0.0331,0.0351,0.0349,0.0365,0.0367,0.0365,0.0389,0.0395,0.0411,0.0392,0.0462,0.0463,0.0464,0.048,0.0483,0.0485,0,0,0,0,0,0.024,0.025,0.0264,0.0272,0.0313,0.0342,0.0347,0.0352,0.0353,0.0359,0.0366,0.0367,0.0399,0.0392,0.0399,0.0416,0.0461,0.0462,0.0464,0.0479,0.0482,0.0485,0,0,0,0,0,0,0.0211,0.0251,0.0265,0.0286,0.0315,0.034,0.0347,0.0362,0.0375,0.0374,0.038,0.0382,0.0405,0.0412,0.0403,0.044,0.0429,0.0432,0.0438,0.0441,0.0444,0.0429,0.0394,0,0,0,0,0,0.0214,0.0232,0.0272,0.029,0.0304,0.0333,0.0347,0.0358,0.0375,0.038,0.0393,0.0404,0.0418,0.0429,0.044,0.0471,0.045,0.0484,0.0487,0.0489,0.0481,0.0461,0.0461,0.0468,0.0468,0.0468,0,0,0.021,0.0233,0.0245,0.0285,0.0306,0.0335,0.0337,0.0363,0.039,0.0385,0.0415,0.0417,0.0427,0.0448,0.046,0.0456,0.0476,0.049,0.0492,0.0483,0.0462,0.0462,0.0461,0.0469,0.0469,0.0469,0,0,0.0211,0.0232,0.0252,0.0283,0.0324,0.0337,0.035,0.0386,0.04,0.044,0.0431,0.0431,0.0478,0.0464,0.047,0.0496,0.0487,0.0516,0.0521,0.0502,0.0501,0.05,0.0468,0.0464,0.0519,0.0519,0.0519,0,0.0205,0.0243,0.0261,0.0297,0.0325,0.0341,0.0376,0.0397,0.0436,0.0449,0.0452,0.047,0.0479,0.0479,0.0488,0.0499,0.049,0.051,0.0504,0.0502,0.0501,0.0469,0.0464,0.052,0.052,0.052,0.052,0,0.0233,0.0269,0.0282,0.0331,0.0357,0.0389,0.0425,0.0452,0.0474,0.0487,0.05,0.0492,0.0497,0.0503,0.0513,0.0506,0.0503,0.0506,0.0494,0.0501,0.0467,0.0461,0.0521,0.0521,0.0521,0.0521,0,0,0.0212,0.0287,0.0295,0.0334,0.0384,0.041,0.0452,0.0489,0.051,0.0524,0.0538,0.0541,0.052,0.0523,0.0513,0.0497,0.048,0.0509,0.0508,0.0472,0.0438,0.0436,0.0429,0.0494,0.0493,0.0493,0.0417,0,0.0233,0.0297,0.033,0.0393,0.0432,0.047,0.05,0.0534,0.0556,0.0568,0.0543,0.0549,0.0533,0.0536,0.0512,0.0498,0.0469,0.05,0.0441,0.0438,0.0432,0.0424,0.049,0.0413,0.0411,0.041,0.041,0,0.0259,0.03,0.0365,0.0437,0.0455,0.049,0.0543,0.0577,0.0591,0.0609,0.059,0.0573,0.0543,0.0533,0.0471,0.0501,0.0469,0.0444,0.0441,0.0427,0.0427,0.0406,0.0399,0.04,0.0401,0.0401,0.0402,0,0.0244,0.0328,0.0377,0.041,0.0483,0.0523,0.0553,0.0586,0.0622,0.063,0.0643,0.059,0.0572,0.0525,0.0482,0.0487,0.0412,0.0408,0.0357,0.0356,0.0371,0.0373,0.0348,0.0348,0.0348,0.0348,0.0348,0,0.026,0.0306,0.0381,0.0417,0.0479,0.0524,0.0581,0.0614,0.0643,0.0666,0.0652,0.0638,0.0576,0.0531,0.0483,0.0406,0.0407,0.0347,0.0336,0.0381,0.0385,0.0367,0.037,0.0345,0.0346,0.0346,0.0347,0,0.0256,0.0298,0.0365,0.0445,0.0482,0.0526,0.0622,0.065,0.0682,0.0713,0.0719,0.0681,0.0619,0.055,0.0464,0.0408,0.034,0.0309,0.0354,0.0349,0.0288,0.0294,0.023,0.0229,0.0229,0.0228,0.0228,0,0.0264,0.0301,0.0391,0.043,0.0479,0.0558,0.0607,0.0669,0.0693,0.073,0.0723,0.0686,0.065,0.0515,0.0441,0.033,0.0314,0.027,0.0275,0.028,0.0276,0.0282,0.0288,0.0227,0.0227,0.0227,0.0226,0,0.0289,0.0314,0.0364,0.044,0.0503,0.0578,0.0645,0.0673,0.0725,0.0756,0.0735,0.0685,0.0601,0.0497,0.042,0.034,0.03,0.0263,0.0263,0.0268,0.0276,0.0274,0.028,0.0224,0.0225,0.0225,0.0225,0,0.0302,0.0329,0.0382,0.0454,0.0519,0.0571,0.0621,0.0656,0.0696,0.0733,0.0715,0.0662,0.0625,0.0499,0.0427,0.0357,0.0324,0.0292,0.029,0.0292,0.034,0.0361,0.0318,0,0,0,0,0,0.0317,0.0345,0.04,0.0458,0.0513,0.0565,0.0629,0.0664,0.0714,0.0702,0.072,0.0653,0.0552,0.0493,0.0418,0.0395,0.0301,0.0302,0.0261,0.0213,0.0216,0.0263,0,0,0,0,0,0,0.0314,0.0367,0.0391,0.0449,0.0494,0.056,0.0609,0.0648,0.0636,0.0674,0.061,0.0623,0.0508,0.0598,0.0413,0.0391,0.0351,0.0264,0.0262,0.0212,0.0214,0.0216,0.0265,0,0,0,0,0]}]]